Flag for Canada Weather past 2 weeks in Colchester County, Nova Scotia, Canada

Now
27 °F

Partly sunny.


Feels Like: 21 °F
Forecast: 10 / 26 °F
Wind: 5 mph from South

Location: Halifax International Airport

Current Time: Jan 30, 2015 at 4:25:11 PM

Latest Report: Jan 30, 2015 at 4:00 PM


Visibility: 15 mi

Pressure: 29.87 "Hg

Humidity: 86%

Dew point: 23 °F

Location of Colchester CountyLocation

Historic Weather in Colchester County — Graph

°F

Colchester County temperature yesterday

Maximum temperature yesterday: 23 °F (at 3:00 PM)
Minimum temperature yesterday: 10 °F (at 7:00 AM)
Average temperature yesterday: 16 °F

Past Weeks' High & Low Weather Summary

 TemperatureHumidityPressure
High50 °F (Jan 24, 11:00 PM)100% (Jan 15, 10:00 PM)30.41 "Hg (Jan 15, 10:00 PM)
Low1 °F (Jan 18, 2:00 AM)41% (Jan 26, 4:00 PM)28.55 "Hg (Jan 25, 3:00 AM)
Average24 °F82%29.82 "Hg
* Reported Jan 15 3:00 PM — Jan 30 3:00 PM, Colchester County, Weather by CustomWeather, © 2014

Note: Actual official high and low records may vary slightly from our data, if they occured in-between our weather recording intervals... More about our weather records

Advertising

Colchester County weather history for previous 24 hours

 ConditionsComfort  
Time TempWeatherWind HumidityBarometerVisibility
3:00 PM
Jan 30
27 °FPartly sunny.3 mph86%29.89 "Hg15 mi
2:00 PM25 °FPartly sunny.2 mph86%29.89 "Hg15 mi
1:00 PM21 °FScattered clouds.2 mph93%29.91 "Hg10 mi
12:00 PM19 °FIce fog.3 mph93%29.93 "Hg2 mi
11:00 AM18 °FIce fog.2 mph93%29.97 "Hg1 mi
10:00 AM16 °FIce fog.3 mph93%29.98 "Hg1 mi
9:00 AM16 °FIce fog.6 mph93%30.00 "Hg0 mi
8:00 AM16 °FIce fog.9 mph93%30.02 "Hg0 mi
7:00 AM16 °FIce fog.6 mph93%30.02 "Hg1 mi
6:00 AM16 °FIce fog.5 mph93%30.03 "Hg1 mi
5:00 AM16 °FIce fog.8 mph100%30.05 "Hg4 mi
4:00 AM16 °FLow clouds.6 mph100%30.06 "Hg7 mi
3:00 AM16 °FLow clouds.6 mph93%30.08 "Hg7 mi
2:00 AM16 °FLow clouds.7 mph93%30.10 "Hg7 mi
1:00 AM16 °FLow clouds.7 mph93%30.10 "Hg10 mi
12:00 AM16 °FLow clouds.7 mph93%30.13 "Hg10 mi
11:00 PM
Jan 29
16 °FLow clouds.7 mph93%30.14 "Hg10 mi
10:00 PM16 °FLow clouds.10 mph93%30.15 "Hg15 mi
9:00 PM14 °FPassing clouds.10 mph92%30.16 "Hg15 mi
8:00 PM14 °FClear.9 mph92%30.16 "Hg15 mi
7:00 PM18 °FClear.8 mph86%30.17 "Hg15 mi
6:00 PM19 °FPassing clouds.8 mph79%30.18 "Hg15 mi
5:00 PM21 °FPassing clouds.10 mph80%30.18 "Hg15 mi
4:00 PM23 °FPassing clouds.12 mph74%30.17 "Hg15 mi
Weather by CustomWeather, © 2014

See weather overviewHow to use our weather pages